Location: Newark
(41.3833°N, 2.1669°E)
Time: 03:53:53
(UTC+00:00)

Hubble Space Telescope - Visible Passes

Search period start: 13 December 2019 00:00
Search period end: 23 December 2019 00:00
Orbit: 536 x 540 km, 28.5° (Epoch: 12 December)

Date Brightness Start Highest point End Pass type
(mag) Time Alt. Az. Time Alt. Az. Time Alt. Az.
16 Dec 3.4 06:34:21 10° SSW 06:36:27 14° S 06:38:32 10° SSE visible
17 Dec 3.5 04:44:46 10° S 04:45:20 11° SSE 04:46:15 10° SSE visible
17 Dec 3.4 06:23:38 10° SSW 06:25:42 14° S 06:27:47 10° SSE visible
18 Dec 3.5 04:34:57 12° SSE 04:34:57 12° SSE 04:36:05 10° SSE visible
18 Dec 3.3 06:13:00 10° SSW 06:14:58 13° S 06:16:58 10° SSE visible
19 Dec 3.6 04:25:04 11° SSE 04:25:04 11° SSE 04:25:39 10° SSE visible
19 Dec 3.3 06:02:25 10° SSW 06:04:15 13° S 06:06:03 10° SSE visible
20 Dec 3.3 05:51:59 10° SSW 05:53:30 12° S 05:55:01 10° SSE visible
21 Dec 3.3 05:41:47 10° SSW 05:42:45 11° SSW 05:43:43 10° S visible
